Probability
0 0 0 0 0 0 0 0 0 0 0 0 0 0 0 0 0 0 0 0 0 0 0 0 0 0 0 0 0 0 0 0 0 0 0 0 0 0 0 0 0 0 0 0
0 0 0 0 0 0 0 0 0 0 0 0 0 0 0 0 0 0 0 0 0 0 0 0 0 0 0 0 0 0 0 0 0 0 0 0 0 0 0 0 0 0 0 0
0 0 0 0 0 0 0 0 0 0 0 0 0 0 0 0 0 0 0 0 0 0 0 0 0 0 0 0 0 0 0 0 0 0 0 0 0 0 0 0 0 0 0 0
0 0 0 0 0 0 0 0 0 0 0 0 0 0 0 0 0 0 0 0 0 0 0 0 0 0 0 0 0 0 0 0 0 0 0 0 0 0 0 0 0 0 0 0
0 0 0 0 0 0 0 0 0 0 0 0 0 0 0 0 0 0 0 0 0 0 0 0 0 0 0 0 0 0 0 0 0 0 0 0 0 0 0 0 0 0 0 0
0 0 0 0 0 0 0 0 0 0 0 0 0 0 0 0 0 0 0 0 0 0 0 0 0 0 0 0 0 0 0 0 0 0 0 0 0 0 0 0 0 0 0 0
0 0 0 0 0 0 0 0 0 0 0 0 0 0 0 0 0 0 0 0 0 0 0 0 0 0 0 0 0 0 0 0 0 0 0 0 0 0 0 0 0 0 0 0
0 0 0 0 0 0 0 0 0 0 0 0 0 0 0 0 0 0 0 0 0 0 0 0 0 0 0 0 0 0 0 0 0 0 0 0 0 0 0 0 0 0 0 0
0 0 0 0 0 0 0 0 0 0 0 0 0 0 0 0 0 0 0 0 0 0 0 0 0 0 0 0 0 0 0 0 0 0 0 0 0 0 0 0 0 0 0 0
0 0 0 0 0 0 0 0 0 0 0 0 0 0 0 0 0 0 0 0 0 0 0 0 0 0 0 0 0 0 0 0 0 0 0 0 0 0 0 0 0 0 0 0
0 0 0 0 0 0 0 0 0 0 0 0 0 0 0 0 0 0 0 0 0 0 0 0 0 0 0 0 0 0 0 0 0 0 0 0 0 0 0 0 0 0 0 0
0 0 0 0 0 0 0 0 0 0 0 0 0 0 0 0 0 0 0 0 0 0 0 0 0 0 0 0 0 0 0 0 0 0 0 0 0 0 0 0 0 0 0 0
0 0 0 0 0 0 0 0 0 0 0 0 0 0 0 0 0 0 0 0 0 0 0 0 0 0 0 0 0 0 0 0 0 0 0 0 0 0 0 0 0 0 0 0
0 0 0 0 0 0 0 0 0 0 0 0 0 0 0 0 0 0 0 0 0 0 0 0 0 0 0 0 0 0 0 0 0 0 0 0 0 0 0 0 0 0 0 0
0 0 0 0 0 0 0 0 0 0 0 0 0 0 0 0 0 0 0 0 0 0 0 0 0 0 0 0 0 0 0 0 0 0 0 0 0 0 0 0 0 0 0 0
0 0 0 0 0 0 0 0 0 0 0 0 0 0 0 0 0 0 0 0 0 0 0 0 0 0 0 0 0 0 0 0 0 0 0 0 0 0 0 0 0 0 0 0
0 0 0 0 0 0 0 0 0 0 0 0 0 0 0 0 0 0 0 0 0 0 0 0 0 0 0 0 0 0 0 0 0 0 0 0 0 0 0 0 0 0 0 0
0 0 0 0 0 0 0 0 0 0 0 0 0 0 0 0 0 0 0 0 0 0 0 0 0 0 0 0 0 0 0 0 0 0 0 0 0 0 0 0 0 0 0 0
0 0 0 0 0 0 0 0 0 0 0 0 0 0 0 0 0 0 0 0 0 0 0 0 0 0 0 0 0 0 0 0 0 0 0 0 0 0 0 0 0 0 0 0
0 0 0 0 0 0 0 0 0 0 0 0 0 0 0 0 0 0 0 0 0 0 0 0 0 0 0 0 0 0 0 0 0 0 0 0 0 0 0 0 0 0 0 0
0 0 0 0 0 0 0 0 0 0 0 0 0 0 0 0 0 0 0 0 0 0 0 0 0 0 0 0 0 0 0 0 0 0 0 0 0 0 0 0 0 0 0 0
0 0 0 0 0 0 0 0 0 0 0 0 0 0 0 0 0 0 0 0 0 0 0 0 0 0 0 0 0 0 0 0 0 0 0 0 0 0 0 0 0 0 0 0
0 0 0 0 0 0 0 0 0 0 0 0 0 0 0 0 0 0 0 0 0 0 0 0 0 0 0 0 0 0 0 0 0 0 0 0 0 0 0 0 0 0 0 0
0 0 0 0 0 0 0 0 0 0 0 0 0 0 0 0 0 0 0 0 0 0 0 0 0 0 0 0 0 0 0 0 0 0 0 0 0 0 0 0 0 0 0 0
0 0 0 0 0 0 0 0 0 0 0 0 0 0 0 0 0 0 0 0 0 0 0 0 0 0 0 0 0 0 0 0 0 0 0 0 0 0 0 0 0 0 0 0
0 0 0 0 0 0 0 0 0 0 0 0 0 0 0 0 0 0 0 0 0 0 0 0 0 0 0 0 0 0 0 0 0 0 0 0 0 0 0 0 0 0 0 0
0 0 0 0 0 0 0 0 0 0 0 0 0 0 0 0 0 0 0 0 0 0 0 0 0 0 0 0 0 0 0 0 0 0 0 0 0 0 0 0 0 0 0 0
Wind_Speed
7 8 7 8 8 8 9 9 7 7 7 7 5 4 4 3 3 3 3 2 3 3 3 3 4 4 4 4 4 5 5 5 5 4 4 3 3 3 2 2 2 1 1 1
6 7 7 9 11 11 11 12 13 12 12 6 3 2 3 4 3 3 3 3 3 3 3 4 4 4 4 4 4 4 5 6 5 4 4 4 4 4 3 3 2 2 2 1
5 4 5 8 8 10 7 7 7 10 7 4 4 3 4 4 4 3 3 3 3 3 3 3 3 3 4 4 4 4 5 5 5 5 5 5 4 4 4 3 3 3 2 2
4 5 6 4 1 1 4 6 7 7 6 4 4 4 4 3 2 3 4 4 4 3 3 3 3 3 3 3 4 5 5 5 5 5 5 4 4 4 4 3 3 3 3 2
3 4 8 3 2 1 1 4 3 4 3 3 3 5 3 1 2 3 4 4 3 3 3 3 3 2 2 3 3 4 5 5 5 5 5 5 5 5 4 3 3 3 2 3
3 4 6 1 3 3 1 3 2 3 2 3 3 3 3 3 4 5 4 4 3 3 3 3 3 2 2 3 4 5 5 5 4 5 5 6 5 5 4 3 3 3 2 2
6 6 8 1 4 3 1 2 1 2 2 2 3 4 5 6 6 5 5 5 4 4 4 4 3 2 3 4 5 5 4 3 4 4 5 5 4 4 3 3 3 3 3 3
6 7 9 3 4 3 2 0 1 2 3 4 5 6 6 6 7 6 6 5 5 4 4 4 3 3 4 5 5 3 3 3 4 4 4 3 4 4 3 4 4 4 3 3
8 8 2 5 3 2 0 2 3 3 4 5 6 7 7 7 7 7 6 5 4 4 5 4 3 4 5 5 3 3 3 4 4 3 3 3 4 4 3 4 4 3 3 3
5 6 4 3 3 2 2 3 4 5 5 5 7 8 8 7 7 6 6 5 4 4 5 5 4 4 5 4 3 3 4 4 3 4 3 3 3 4 4 4 4 4 4 4
7 7 6 4 3 3 3 4 4 5 6 6 7 8 8 7 7 6 5 5 4 5 6 6 5 5 4 3 3 4 4 4 3 4 4 4 4 4 5 4 5 5 4 4
7 4 3 4 3 3 4 4 5 6 7 6 7 8 8 7 6 5 6 5 5 6 6 6 5 5 4 4 4 4 4 4 3 3 3 3 3 2 4 5 6 7 6 5
6 5 5 6 5 3 4 5 5 6 7 8 7 7 7 7 6 5 6 6 6 6 6 6 5 5 4 4 4 5 5 4 3 3 4 4 4 4 3 3 5 6 7 7
5 5 6 5 5 4 5 5 6 6 6 7 6 6 6 6 6 6 6 6 6 6 6 6 6 6 4 3 4 5 4 5 4 4 4 4 4 4 4 4 3 3 6 9
6 5 5 5 5 5 5 5 6 6 6 6 5 5 5 6 6 7 6 6 5 6 6 6 6 6 4 3 4 4 4 3 3 3 3 3 3 4 4 4 4 3 2 4
3 3 4 5 6 5 5 5 5 6 6 6 6 5 5 5 6 7 6 5 5 7 7 6 6 6 3 4 4 4 4 6 5 3 3 3 4 4 4 4 4 4 4 4
3 4 3 4 5 6 5 5 5 6 6 6 6 6 5 6 6 7 6 6 6 7 7 6 7 5 4 4 5 4 4 5 7 4 4 4 4 4 4 4 4 4 4 5
3 4 4 4 5 6 6 5 5 6 6 6 6 6 6 6 7 8 7 6 6 7 7 6 6 5 5 5 4 4 4 4 4 4 4 4 4 4 5 5 5 5 3 4
2 3 4 4 5 5 5 6 6 6 6 6 6 6 7 7 7 7 6 6 7 8 7 5 6 5 5 5 5 3 4 5 4 4 4 7 6 5 5 5 5 5 4 4
2 2 3 4 5 5 6 7 6 7 6 6 6 7 8 8 7 6 6 7 7 6 6 5 4 4 4 5 6 4 5 5 5 5 5 5 5 5 5 5 5 5 4 4
4 4 5 5 6 6 7 7 7 8 7 6 7 8 9 8 7 6 6 8 7 5 5 6 4 3 4 4 6 4 5 5 5 5 5 5 5 5 5 5 5 5 5 4
4 5 6 6 6 7 7 6 7 8 8 7 8 8 8 8 8 7 7 7 7 7 4 4 4 5 6 6 4 4 5 5 5 5 5 5 5 5 5 5 5 5 4 4
5 6 7 7 7 8 8 7 8 7 8 8 8 8 8 8 6 6 8 5 4 7 5 4 6 9 9 5 4 5 6 6 6 6 5 5 5 5 5 5 5 5 4 4
7 7 7 7 7 7 10 10 8 7 8 9 9 9 8 7 7 6 7 8 8 8 5 7 10 11 9 4 4 5 5 6 5 5 5 4 5 5 5 5 5 4 4 5
8 8 8 8 8 8 9 9 8 8 8 7 8 8 7 6 7 6 5 6 8 8 5 7 11 10 6 4 5 5 5 6 5 5 5 5 5 5 5 4 5 4 4 4
8 8 8 8 8 7 7 6 6 6 6 7 7 6 5 5 6 6 5 6 7 8 6 5 5 6 5 5 5 6 5 5 6 6 5 5 5 5 5 5 6 5 4 4
8 8 7 7 8 7 7 7 7 8 7 7 8 6 5 5 5 5 6 5 5 5 5 5 4 4 4 5 5 5 5 5 5 5 5 5 5 5 5 6 5 4 4 4
Wind_Direction
279 279 273 261 252 234 225 224 236 257 273 291 311 313 307 304 302 293 284 264 230 227 232 226 219 218 212 206 199 195 197 207 217 215 208 205 210 214 215 218 223 225 231 256
280 252 251 259 249 242 239 237 247 267 279 280 293 331 330 325 321 307 297 288 273 254 246 240 232 221 215 214 206 195 203 211 211 208 203 203 208 209 208 210 210 208 217 227
284 304 301 267 238 218 219 219 226 246 257 298 318 332 320 314 304 290 297 300 292 276 258 252 244 224 217 217 204 201 210 213 208 204 205 206 204 202 206 209 207 209 215 210
290 319 262 242 86 139 229 246 234 249 277 306 313 317 302 295 301 313 317 308 295 283 276 267 256 241 222 210 203 205 211 214 208 203 205 202 201 208 209 205 204 206 213 209
270 282 276 250 162 147 232 276 251 246 278 312 339 329 312 20 22 315 307 305 294 287 283 277 268 253 235 221 210 209 215 215 209 203 203 201 205 212 210 202 204 203 201 198
248 259 261 252 121 89 62 270 23 41 354 340 348 316 279 353 346 322 315 306 300 298 291 277 270 260 246 237 223 222 223 219 209 203 202 205 207 206 202 196 201 196 207 205
236 251 265 238 138 124 202 237 34 21 340 318 274 253 288 318 314 305 298 295 290 282 274 266 263 245 245 245 237 232 221 212 206 204 206 205 201 197 189 188 190 195 205 216
203 226 250 162 139 191 236 324 329 315 303 292 283 288 296 295 292 291 287 284 282 275 271 267 256 240 247 249 247 232 215 210 207 204 205 199 195 194 183 182 193 203 207 223
206 221 232 160 192 220 343 299 298 290 287 287 286 285 286 287 286 285 282 279 275 271 273 268 251 233 246 255 244 224 218 217 210 203 202 194 190 189 186 188 196 204 203 216
268 263 268 246 244 267 280 279 286 284 283 284 281 284 287 286 285 283 281 279 274 271 270 269 258 245 243 251 235 220 224 223 209 200 200 194 191 187 191 197 201 203 203 209
259 273 287 271 273 293 301 296 292 287 283 281 283 284 283 285 284 283 284 281 273 264 266 269 263 256 247 236 220 224 228 224 217 208 198 195 197 200 201 205 197 197 201 194
245 248 257 280 310 321 300 291 288 289 288 282 278 281 283 282 280 280 283 283 280 271 267 269 265 260 249 227 214 217 226 223 217 211 202 197 197 206 205 201 207 207 203 199
261 283 284 288 292 292 283 284 284 281 281 284 282 279 281 282 282 282 282 280 276 272 270 270 268 265 254 226 211 213 222 223 218 210 203 200 195 192 203 211 211 215 214 215
268 280 280 279 287 294 289 286 282 279 277 276 278 281 280 282 285 284 281 278 276 276 272 269 267 265 254 222 211 217 221 221 217 213 206 202 199 196 192 196 207 221 221 222
254 249 260 283 288 289 291 291 290 288 288 287 284 282 279 281 284 285 285 285 283 278 273 270 268 268 253 215 214 221 221 220 214 209 205 201 196 195 195 199 205 207 202 217
265 273 277 279 283 290 294 292 286 287 290 290 291 286 283 278 279 282 281 278 277 276 274 272 269 269 248 215 214 221 224 222 215 206 202 198 197 199 201 201 203 205 208 205
254 267 274 282 286 289 287 285 284 286 290 290 287 288 289 287 285 282 280 276 268 268 267 262 262 261 239 217 211 216 217 219 211 209 206 203 203 204 204 203 207 211 212 205
231 247 255 263 271 282 286 286 285 286 283 282 285 284 280 277 277 280 283 285 284 280 270 258 254 251 237 223 214 212 211 214 209 207 206 205 207 205 205 206 209 211 209 212
230 251 263 267 267 271 276 280 281 281 280 280 278 276 274 272 272 278 283 282 280 282 278 260 250 242 235 226 214 212 210 211 211 210 205 213 215 208 206 207 207 206 204 204
242 253 264 272 272 265 268 273 277 278 277 274 275 277 278 276 274 276 278 273 264 260 268 268 257 244 235 227 215 214 213 212 211 209 205 205 208 209 208 207 205 204 205 206
256 261 266 270 274 271 266 267 271 274 275 269 265 268 273 277 274 270 272 279 277 262 259 260 253 242 229 225 220 217 214 213 211 210 208 209 208 207 207 206 205 205 205 204
259 262 266 268 270 274 271 263 261 266 271 269 264 263 268 274 274 268 256 254 267 270 264 253 249 242 235 231 219 216 217 216 214 210 209 208 206 206 206 204 205 205 202 199
259 259 262 264 265 270 274 269 262 261 263 263 264 263 261 262 260 263 275 264 255 262 260 251 252 250 245 234 219 217 218 217 216 214 212 208 206 205 205 203 203 200 198 197
261 261 261 264 266 269 272 272 266 259 256 258 257 254 254 262 267 250 247 264 266 266 259 257 259 256 247 231 220 218 219 220 218 215 211 207 205 202 201 199 198 197 195 194
259 261 263 264 263 262 263 266 268 266 262 261 261 255 244 236 247 260 256 256 261 265 264 263 263 258 245 226 220 219 219 218 215 209 207 206 205 203 199 194 193 193 194 194
257 259 259 254 253 257 260 260 263 265 265 269 270 262 252 244 244 251 255 255 255 259 258 257 253 250 236 227 224 221 219 220 222 216 207 203 203 201 197 195 194 194 192 191
254 255 258 261 259 252 250 250 254 259 255 255 265 265 256 252 250 250 251 251 250 249 248 247 242 237 232 228 226 222 217 211 208 206 202 201 201 201 198 194 193 189 184 183